[[{"header":{"parameterUnit":"m.s-1","parameterCategory":1,"la1":30.2991,"la2":30.254,"lo1":-89.0895,"lo2":-89.0444,"dy":0.0017,"dx":0.0017,"nx":28,"ny":28,"refTime":"2025-05-16T09:00:00:Z","depth":0,"parameterNumber":2,"parameterNumberName":"U-component_of_WINDS"},"data":[0,0,0,0,0,0,0,0,0,0,0,0,0,0,0,0,0,0,0,0,0,0,0,0,0,0,0,0,0,0,0,0,0,0,0,0,0,0,0,0,0,0,0,0,0,0,0,0,0,0,0,0,0,0,0,0,0,0,3.3953,3.3955,0,3.4065,3.4067,3.4068,3.403,3.4027,3.4025,3.4022,3.4138,3.4143,3.4148,0,0,0,0,0,0,0,0,0,0,0,0,0,3.3705,3.371,3.3953,3.3955,3.3956,3.4065,3.4067,3.4068,3.403,3.4027,3.4024,3.4021,3.4136,3.4142,3.4149,0,0,0,0,0,0,0,0,0,0,0,0,0,3.3815,3.3711,3.3953,3.395,3.3951,3.4065,3.4067,3.4069,3.4031,3.4027,3.4023,3.402,3.4134,3.4142,3.415,3.4273,0,0,3.4174,3.4178,0,0,0,0,0,0,0,0,3.3808,3.3824,3.3949,3.3951,3.3952,3.403,3.4021,3.4137,3.4032,3.4001,3.4022,3.4018,3.4105,3.4115,3.4144,3.4279,3.4284,3.4175,3.418,3.4183,3.4186,0,0,0,0,0,0,0,3.3801,3.3819,3.3998,3.3951,3.3953,3.3943,3.3954,3.4043,3.4072,3.4003,3.4,3.4014,3.4105,3.4137,3.4147,3.4285,3.4175,3.4182,3.4187,3.419,3.4524,3.4528,0,0,0,0,0,0,3.3793,3.3813,3.3994,3.4001,3.3869,3.395,3.3963,3.4008,3.4071,3.4077,3.4017,3.4012,3.4125,3.4137,3.4151,3.4297,3.4183,3.4191,3.4195,3.452,3.4525,3.4529,0,0,0,0,0,0,3.3787,3.3809,3.3989,3.3906,3.3928,3.3959,3.401,3.4013,3.4044,3.4082,3.4087,3.4044,3.4122,3.4139,3.4242,3.4301,3.4194,3.4202,3.4515,3.4521,3.4527,3.4593,0,0,0,0,0,0,3.378,3.3808,3.3855,3.3907,3.3933,3.408,3.4013,3.4017,3.4058,3.4052,3.4109,3.4114,3.4121,3.4231,3.425,3.431,3.4208,3.451,3.4518,3.4525,3.4586,3.46,3.4613,0,0,0,0,0,3.3772,3.387,3.3858,3.388,3.3993,3.4083,3.4098,3.4103,3.4063,3.4111,3.4134,3.4112,3.4291,3.4241,3.4263,3.4326,3.4506,3.4516,3.4524,3.4579,3.4597,3.4613,0,0,0,0,0,0,3.3824,3.3877,3.3864,3.3982,3.4028,3.4077,3.4137,3.4123,3.4181,3.4174,3.4178,3.4191,3.4296,3.4322,3.4265,3.4448,3.4393,3.4407,3.4427,3.4445,3.4458,3.4449,3.4215,0,0,0,0,0,3.385,3.3919,3.3961,3.4061,3.4085,3.4107,3.4147,3.4146,3.4195,3.4214,3.4246,3.4293,3.436,3.4404,3.4468,3.4589,3.46,3.4643,3.4657,3.4668,3.468,3.4743,3.4762,3.4559,3.4559,3.4559,0,0,3.3903,3.394,3.3983,3.4072,3.4108,3.4179,3.4124,3.4202,3.4254,3.4226,3.4325,3.4349,3.4403,3.4515,3.4566,3.454,3.4738,3.468,3.4688,3.4694,3.4755,3.4774,3.4791,3.4565,3.4564,3.4563,0,0,3.4035,3.4071,3.4157,3.4194,3.4249,3.4263,3.4283,3.4334,3.4349,3.4448,3.4428,3.449,3.4605,3.4643,3.4678,3.4822,3.4804,3.4843,3.4915,3.4977,3.4993,3.5007,3.5056,3.5074,3.4855,3.4855,3.4855,0,3.4094,3.42,3.4203,3.4282,3.4321,3.4299,3.4385,3.4421,3.4494,3.4521,3.449,3.4633,3.4667,3.4787,3.4822,3.4852,3.4874,3.4836,3.499,3.5005,3.5018,3.5065,3.5084,3.4859,3.4859,3.4858,3.4858,0,3.4268,3.4342,3.4405,3.4475,3.4521,3.4604,3.4619,3.4665,3.4661,3.4677,3.4777,3.4818,3.4888,3.4917,3.4914,3.5036,3.5017,3.4989,3.4933,3.5041,3.5086,3.5104,3.4865,3.4864,3.4863,3.4862,0,0,3.4437,3.4507,3.453,3.456,3.4618,3.4675,3.4756,3.4824,3.4862,3.4914,3.498,3.5077,3.505,3.509,3.5091,3.5145,3.5254,3.511,3.5111,3.5133,3.5388,3.5408,3.5429,3.5243,3.5246,3.5249,3.5383,0,3.4573,3.4714,3.4719,3.4848,3.4915,3.4894,3.4964,3.5006,3.5024,3.5083,3.5102,3.517,3.5131,3.5154,3.5207,3.523,3.5305,3.5221,3.5303,3.5306,3.5289,3.5453,3.5474,3.5599,3.5401,3.5404,3.5406,0,3.475,3.4805,3.494,3.4986,3.5015,3.5078,3.5139,3.5196,3.5244,3.5252,3.5295,3.5288,3.5369,3.5312,3.5422,3.5365,3.5399,3.5415,3.542,3.5426,3.5361,3.5461,3.5639,3.5657,3.5434,3.5431,3.5429,0,3.4856,3.4965,3.5059,3.5086,3.5143,3.5187,3.5213,3.5257,3.5297,3.5351,3.5376,3.5439,3.5474,3.5522,3.5531,3.5489,3.5642,3.5586,3.565,3.5649,3.5682,3.5679,3.5865,3.5707,3.5707,3.5707,3.5706,0,3.5006,3.5089,3.5107,3.5165,3.5257,3.5261,3.5352,3.5374,3.5413,3.5474,3.5461,3.5518,3.5527,3.5587,3.5595,3.5684,3.57,3.5708,3.5709,3.5709,3.5707,3.573,3.572,3.5712,3.571,3.571,3.5709,0,3.514,3.5156,3.5257,3.5302,3.5315,3.5381,3.5419,3.5474,3.549,3.5567,3.5585,3.561,3.5679,3.5693,3.5775,3.578,3.5886,3.5879,3.5869,3.5868,3.593,3.5923,3.6135,3.6162,3.5989,3.5991,3.5992,0,3.5234,3.5297,3.5348,3.5388,3.5416,3.548,3.552,3.5527,3.5569,3.5627,3.5674,3.5742,3.5796,3.5907,3.5931,3.5994,3.5987,3.6057,3.5996,3.5992,3.5985,3.598,3.5985,3.6068,3.607,3.6071,3.6072,0,3.5397,3.5401,3.546,3.5521,3.5569,3.5617,3.5663,3.5696,3.5709,3.5757,3.5827,3.5869,3.5952,3.6018,3.608,3.6105,3.6091,3.6092,3.6109,3.6108,3.6099,3.6102,3.5899,3.6086,3.6085,3.6084,3.6083,3.6083,3.5512,3.5566,3.561,3.5675,3.571,3.5753,3.5806,3.5828,3.5886,3.5954,3.5954,3.603,3.6074,3.6155,3.6185,3.6243,3.6221,3.6248,3.6254,3.626,3.6264,3.6091,3.6255,3.6255,3.6254,3.6254,3.6254,0,3.5673,3.57,3.5759,3.5823,3.5874,3.5856,3.5905,3.5949,3.6016,3.6058,3.6111,3.619,3.6254,3.6283,3.6346,3.6387,3.6382,3.6403,3.6399,3.6405,3.6282,3.6259,3.6406,3.6406,3.6406,3.6406,3.6406,3.6406,3.5762,3.5852,3.5861,3.5967,3.5994,3.6068,3.6097,3.6136,3.6169,3.6258,3.6311,3.6329,3.6366,3.6431,3.6488,3.6495,3.6517,3.6542,3.6545,3.6429,3.6414,3.6399,3.6377,3.6547,3.6547,3.6663,3.6664,3.6665]},{"header":{"parameterUnit":"m.s-1","parameterCategory":1,"la1":30.2991,"la2":30.254,"lo1":-89.0895,"lo2":-89.0444,"dy":0.0017,"dx":0.0017,"nx":28,"ny":28,"refTime":"2025-05-16T09:00:00:Z","depth":0,"parameterNumber":3,"parameterNumberName":"V-component_of_WINDS"},"data":[0,0,0,0,0,0,0,0,0,0,0,0,0,0,0,0,0,0,0,0,0,0,0,0,0,0,0,0,0,0,0,0,0,0,0,0,0,0,0,0,0,0,0,0,0,0,0,0,0,0,0,0,0,0,0,0,0,0,3.5285,3.5286,0,3.5332,3.5332,3.5333,3.5283,3.5281,3.5279,3.5277,3.5323,3.5326,3.5329,0,0,0,0,0,0,0,0,0,0,0,0,0,3.5149,3.5152,3.5285,3.5286,3.5286,3.5332,3.5332,3.5333,3.5283,3.5281,3.5279,3.5276,3.5322,3.5326,3.5329,0,0,0,0,0,0,0,0,0,0,0,0,0,3.5203,3.5153,3.5285,3.5267,3.5266,3.5332,3.5332,3.5333,3.5284,3.5281,3.5278,3.5275,3.5321,3.5325,3.533,3.5415,0,0,3.5344,3.5346,0,0,0,0,0,0,0,0,3.52,3.5208,3.5269,3.5268,3.5267,3.5299,3.5301,3.5361,3.5284,3.5277,3.5277,3.5274,3.5317,3.5322,3.5337,3.5417,3.5419,3.5344,3.5347,3.5349,3.535,0,0,0,0,0,0,0,3.5197,3.5206,3.5303,3.527,3.5269,3.5255,3.526,3.5312,3.5312,3.5277,3.5274,3.528,3.5316,3.5333,3.5338,3.542,3.5344,3.5348,3.5351,3.5353,3.5571,3.5574,0,0,0,0,0,0,3.5195,3.5203,3.5302,3.5305,3.5226,3.526,3.5265,3.5291,3.5312,3.5312,3.5282,3.5278,3.5326,3.5332,3.5339,3.544,3.5349,3.5353,3.5356,3.5568,3.5572,3.5575,0,0,0,0,0,0,3.5193,3.5205,3.53,3.5253,3.5264,3.5266,3.5295,3.5294,3.531,3.5316,3.5315,3.53,3.5324,3.5333,3.5396,3.544,3.5355,3.5359,3.5565,3.5569,3.5574,3.5642,0,0,0,0,0,0,3.5189,3.5204,3.5237,3.5254,3.5267,3.5358,3.5298,3.5297,3.5318,3.5312,3.5332,3.5332,3.5323,3.539,3.5401,3.5445,3.5363,3.5561,3.5567,3.5572,3.5636,3.5648,3.5659,0,0,0,0,0,3.5184,3.5255,3.5239,3.5251,3.5309,3.5361,3.5368,3.5356,3.5322,3.5355,3.5358,3.5331,3.5434,3.5397,3.5409,3.5455,3.5558,3.5565,3.5572,3.5631,3.5646,3.5659,0,0,0,0,0,0,3.5242,3.5257,3.524,3.5318,3.5338,3.5352,3.5393,3.5373,3.5403,3.5396,3.538,3.5384,3.5452,3.546,3.5419,3.5538,3.549,3.55,3.5531,3.5545,3.5557,3.5554,3.5366,0,0,0,0,0,3.5264,3.5306,3.5316,3.5383,3.5395,3.5392,3.5415,3.5404,3.5424,3.5432,3.544,3.5461,3.5497,3.5522,3.5556,3.5636,3.5639,3.5674,3.5685,3.5695,3.5704,3.5746,3.5761,3.5598,3.5598,3.5598,0,0,3.531,3.5323,3.535,3.5395,3.541,3.5453,3.54,3.5448,3.5479,3.5439,3.55,3.5507,3.5528,3.56,3.5633,3.5609,3.5749,3.5704,3.5712,3.5715,3.5755,3.577,3.5784,3.5603,3.5602,3.5601,0,0,3.5415,3.5429,3.5487,3.5503,3.5526,3.5523,3.5537,3.5554,3.5557,3.5617,3.5589,3.5624,3.5688,3.5704,3.5721,3.583,3.5806,3.5842,3.5903,3.5944,3.5957,3.5968,3.6006,3.602,3.585,3.585,3.585,0,3.5469,3.5533,3.5519,3.5568,3.5589,3.5555,3.5613,3.5628,3.5661,3.5675,3.5648,3.5726,3.5738,3.5814,3.584,3.5855,3.5869,3.584,3.5956,3.5967,3.5978,3.6014,3.6029,3.5854,3.5854,3.5853,3.5853,0,3.5597,3.5642,3.5685,3.5718,3.5743,3.5796,3.579,3.5816,3.5803,3.5803,3.5865,3.5878,3.5913,3.593,3.5918,3.6003,3.5988,3.5959,3.591,3.5997,3.6031,3.6045,3.586,3.5859,3.5858,3.5857,0,0,3.5741,3.5765,3.5781,3.5795,3.5817,3.5851,3.5902,3.5937,3.596,3.5983,3.6025,3.6078,3.6051,3.607,3.6059,3.6095,3.618,3.6061,3.6061,3.6082,3.6274,3.6296,3.6312,3.6164,3.6166,3.6168,3.6272,0,3.5846,3.5935,3.5924,3.6009,3.6049,3.6017,3.6062,3.6079,3.6081,3.6114,3.6115,3.6153,3.6115,3.6126,3.616,3.6162,3.6218,3.6155,3.6202,3.6203,3.6197,3.633,3.6353,3.6451,3.6285,3.6287,3.6289,0,3.5981,3.6009,3.6099,3.6114,3.613,3.617,3.6201,3.6233,3.6252,3.625,3.6271,3.6253,3.6302,3.6253,3.632,3.6277,3.6296,3.6299,3.6303,3.6307,3.6252,3.6337,3.6481,3.6496,3.631,3.6308,3.6307,0,3.6076,3.6137,3.6198,3.6211,3.623,3.6258,3.6268,3.6284,3.6305,3.6331,3.6345,3.6376,3.6394,3.6418,3.6408,3.6373,3.6477,3.6427,3.6476,3.6477,3.65,3.6499,3.6649,3.6512,3.6512,3.6512,3.6511,0,3.6195,3.6251,3.6241,3.6278,3.6339,3.6325,3.6385,3.639,3.6405,3.6442,3.6415,3.6451,3.6436,3.6469,3.6462,3.6518,3.6526,3.6525,3.6523,3.6528,3.6528,3.654,3.6533,3.6516,3.6515,3.6514,3.6513,0,3.6312,3.6308,3.6372,3.6385,3.6389,3.6433,3.6443,3.6478,3.6477,3.6524,3.6534,3.6532,3.657,3.6562,3.6604,3.6599,3.667,3.6659,3.6664,3.6661,3.6711,3.6706,3.6874,3.6895,3.6745,3.6746,3.6747,0,3.6388,3.643,3.6447,3.6471,3.6482,3.652,3.6541,3.6528,3.6551,3.6575,3.6607,3.6643,3.6671,3.6733,3.6734,3.6766,3.6755,3.6812,3.676,3.6763,3.6756,3.6753,3.6757,3.6822,3.6824,3.6825,3.6827,0,3.6523,3.6519,3.6552,3.6584,3.661,3.6634,3.6656,3.6676,3.6664,3.6692,3.6731,3.6753,3.6795,3.6831,3.686,3.6868,3.6845,3.6843,3.6856,3.6861,3.6862,3.6862,3.6692,3.6839,3.6838,3.6837,3.6836,3.6836,3.6622,3.6658,3.6675,3.6712,3.6727,3.6747,3.678,3.6783,3.6815,3.6849,3.6839,3.6883,3.6899,3.6936,3.6947,3.6981,3.6959,3.6978,3.6983,3.6988,3.6994,3.6857,3.6986,3.6985,3.6985,3.6985,3.6984,0,3.6756,3.6765,3.6799,3.683,3.6859,3.6835,3.6857,3.6882,3.6922,3.6939,3.6967,3.7011,3.7045,3.7049,3.7081,3.7107,3.7097,3.7116,3.7113,3.7115,3.7011,3.6997,3.7123,3.7123,3.7123,3.7123,3.7123,3.7123,3.6829,3.6887,3.6885,3.695,3.6958,3.7002,3.7016,3.7035,3.7048,3.7099,3.7127,3.7129,3.7141,3.7173,3.7203,3.7203,3.7215,3.7238,3.7234,3.7137,3.7123,3.711,3.7096,3.7241,3.7241,3.7335,3.7336,3.7337]}]]